Wind_Speed
120 121 123 125 127 129 131 134 136 137 139 140 141 141 141 140 140 138 137 135 134 132 131 129 128 126 125 123 121 119 117 115 112 110 107 105 102 99 96 93 90 87 84 81 78 75 72 69 67 64 62 60 57 55 53 52 50 48 46 44 42 41 40 39 38 38 37 37 37 36 36 35 35 35 35 34 34 33 33 32 32 32 31 31 31 31
123 125 127 129 131 133 135 137 139 140 140 141 141 141 141 139 138 137 136 134 133 131 129 128 126 125 123 121 119 117 115 112 110 107 104 101 99 96 92 89 86 83 80 77 74 72 69 66 64 61 59 57 55 53 51 49 47 45 43 41 40 39 38 38 37 37 37 36 36 36 35 35 34 34 34 33 33 33 32 32 32 31 31 31 31 31
127 129 131 133 135 137 138 140 141 142 142 141 141 141 139 138 137 135 134 133 131 130 128 127 125 123 121 119 117 114 112 109 106 104 101 98 95 92 89 86 83 80 77 74 71 68 66 63 61 58 56 54 52 50 48 46 44 42 41 39 38 38 37 37 36 36 36 36 35 35 34 34 34 33 33 33 33 32 32 32 32 31 31 31 31 31
131 133 135 137 139 140 141 142 142 142 142 142 141 140 138 137 135 134 133 131 130 129 127 126 124 122 119 117 114 111 109 106 103 100 97 94 91 88 85 82 79 76 73 70 67 65 62 60 58 55 53 51 49 47 46 44 42 40 39 38 37 37 36 36 36 36 35 35 35 34 34 34 33 33 33 32 32 32 32 32 31 31 31 31 31 31
135 137 139 140 141 142 143 143 143 142 142 141 139 138 137 135 134 133 131 130 129 127 126 124 122 119 116 114 111 108 105 102 99 96 93 90 87 84 81 78 75 72 70 67 64 62 59 57 55 53 51 49 47 45 43 41 40 38 37 36 36 36 35 35 35 35 35 34 34 34 33 33 33 32 32 32 32 32 32 31 31 31 31 31 31 31
139 141 142 143 143 143 144 143 143 142 141 139 138 137 135 134 132 131 130 129 127 126 124 122 119 116 113 110 107 104 101 98 95 92 89 87 84 81 78 75 72 69 66 64 61 59 56 54 52 50 48 46 44 43 41 39 38 37 36 35 35 35 35 35 34 34 34 34 34 33 33 33 33 32 32 32 32 32 31 31 31 31 31 31 31 31
142 143 144 144 144 144 143 143 142 140 139 138 136 135 134 132 131 130 129 127 126 124 121 119 116 113 109 106 103 100 97 94 91 89 86 83 80 77 74 71 68 66 63 60 58 56 53 51 49 47 46 44 42 40 39 37 36 35 35 35 34 34 34 34 34 34 33 33 33 33 33 33 33 32 32 32 32 32 31 31 31 31 31 31 31 31
144 145 145 145 144 144 143 142 140 139 137 136 134 133 132 131 130 129 127 125 123 121 118 115 112 109 106 102 99 96 93 90 88 85 82 79 76 73 70 68 65 62 60 58 55 53 51 49 47 45 43 41 40 38 37 36 35 35 34 34 34 34 34 33 33 33 33 33 33 33 33 33 33 33 32 32 32 32 32 32 31 31 31 31 31 31
145 145 145 144 143 142 141 140 139 137 136 134 133 132 131 130 128 127 125 123 120 117 114 111 108 105 102 98 95 92 89 87 84 81 78 75 72 70 67 64 62 59 57 55 52 50 48 46 44 42 41 39 38 36 35 35 34 34 34 34 33 33 33 33 33 32 32 32 32 33 33 33 33 33 33 33 32 32 32 32 32 31 31 31 31 31
146 145 144 143 142 141 139 138 137 136 134 133 131 130 129 128 126 124 122 120 117 113 110 106 103 100 97 94 92 89 86 83 80 77 74 71 69 66 63 61 58 56 54 52 50 48 46 44 42 40 38 37 36 35 34 34 34 34 33 33 33 33 33 32 32 32 32 32 32 33 33 33 33 33 33 33 33 33 33 32 32 32 31 31 31 31
146 145 143 142 141 139 138 136 135 134 133 131 130 129 128 126 123 121 118 115 112 109 106 102 99 96 93 90 88 85 82 79 77 74 71 68 65 63 60 58 56 53 51 49 47 45 43 41 39 38 36 35 35 34 34 33 33 33 33 33 32 32 32 31 31 31 32 32 32 33 33 33 33 33 34 34 34 33 33 33 32 32 32 31 31 31
144 143 142 141 139 138 137 135 134 133 131 130 129 127 126 123 120 117 114 111 107 104 101 98 95 92 89 86 84 82 79 76 73 70 67 65 62 59 57 55 53 51 48 47 44 42 41 39 37 36 35 34 34 34 33 33 33 33 32 32 32 31 31 31 31 31 31 32 32 33 33 33 34 34 34 34 34 34 34 34 33 33 32 32 31 31
143 142 140 139 138 137 135 134 133 132 131 129 127 125 122 120 117 113 110 106 103 100 96 93 91 89 86 83 80 78 75 72 69 67 64 61 59 56 54 52 50 48 46 44 42 40 38 37 36 35 34 34 33 33 33 33 32 32 32 31 31 31 30 30 31 31 31 32 32 33 33 34 34 35 35 35 35 35 35 34 34 33 33 32 31 31
141 140 139 138 137 136 134 133 132 131 129 127 124 122 119 116 112 109 105 102 99 95 92 89 87 85 83 80 77 74 71 68 66 63 60 58 56 53 51 49 47 45 43 41 40 38 37 35 34 34 34 33 33 33 32 32 32 32 31 31 30 30 30 30 30 31 31 32 32 33 33 34 35 35 35 36 36 36 35 35 34 34 33 33 32 31
140 138 137 137 135 135 133 132 130 129 127 124 121 118 115 112 108 105 101 97 94 92 89 86 84 81 79 76 73 70 67 65 62 59 57 55 53 51 49 47 45 43 41 39 38 36 35 34 34 33 33 33 33 32 32 32 31 31 31 30 30 30 30 30 31 31 32 32 33 33 34 34 35 35 36 36 36 36 36 36 35 35 34 33 33 32
138 137 136 135 135 133 132 130 128 126 123 121 117 114 111 107 104 100 97 93 90 87 85 82 80 78 75 73 70 67 64 61 59 56 54 52 50 48 46 44 42 41 39 37 36 35 34 34 33 33 33 32 32 32 31 31 31 30 30 30 30 30 30 30 31 31 32 32 33 33 34 35 35 36 36 37 37 37 37 36 36 36 35 34 34 33
137 136 135 134 133 132 130 128 126 123 120 116 113 110 106 103 99 96 92 89 86 84 81 78 76 73 71 69 66 63 60 57 55 54 51 50 48 46 44 42 40 39 37 36 35 34 33 33 33 33 32 32 31 31 31 31 30 30 30 30 30 30 30 31 31 32 32 33 33 34 34 35 35 36 37 37 37 37 37 37 37 36 36 35 35 34
136 135 134 133 131 130 128 125 122 119 116 112 109 106 102 99 96 92 88 85 82 80 77 75 72 69 67 64 62 60 57 54 52 51 49 47 46 44 42 40 38 37 36 35 34 34 33 33 32 32 32 31 31 31 31 30 30 30 30 30 30 31 31 31 32 32 33 33 33 34 34 35 36 36 37 37 38 38 38 38 37 37 37 36 35 35
134 133 132 130 129 127 124 121 118 115 111 108 105 102 98 95 91 88 84 81 79 76 74 71 69 66 63 61 59 57 54 52 50 48 47 45 44 42 40 38 37 36 35 34 34 33 33 32 32 32 31 31 31 30 30 30 30 30 30 30 31 31 31 32 32 33 33 34 34 34 35 35 36 37 37 38 38 38 38 38 38 38 37 37 36 36
133 131 130 128 125 123 120 117 114 110 107 104 101 97 94 91 87 84 81 78 75 73 70 67 65 63 60 58 56 54 52 49 48 46 45 43 42 40 38 37 36 35 34 34 33 33 32 32 32 31 31 31 30 30 30 30 30 30 31 31 31 31 32 32 33 34 34 34 34 35 35 36 37 37 38 38 39 39 39 39 39 38 38 37 37 36
130 129 127 124 121 118 115 112 109 106 103 100 96 93 90 86 83 80 77 74 72 69 67 64 62 59 57 55 53 51 49 47 46 45 43 42 40 39 37 36 35 35 34 34 33 33 32 32 31 31 31 30 30 30 30 30 31 31 31 31 31 32 32 33 34 34 35 35 35 35 36 36 37 38 38 39 39 39 39 39 39 39 38 38 37 37
127 125 123 120 117 113 110 107 105 102 99 95 92 88 85 82 79 76 74 71 68 66 64 61 59 56 54 52 50 49 47 46 44 43 42 40 39 38 36 35 35 34 34 33 33 32 32 31 31 31 30 30 30 30 31 31 31 31 31 32 32 32 33 34 34 35 35 35 36 36 37 37 38 38 39 39 40 40 40 40 39 39 39 38 38 37
123 121 118 115 112 109 106 103 100 98 95 91 87 84 81 78 75 73 70 68 65 63 60 58 56 54 52 50 48 47 46 44 42 41 40 39 38 37 36 35 34 34 33 33 32 32 31 31 31 30 30 30 30 31 31 31 31 32 32 32 32 33 34 34 35 36 36 36 36 37 37 38 38 39 39 40 40 40 40 40 40 40 39 39 38 38
119 116 113 110 107 104 101 99 96 93 90 87 83 80 77 74 72 70 67 65 62 60 58 55 53 51 49 48 46 45 44 42 41 40 38 38 37 36 35 34 34 33 33 33 32 31 31 31 31 31 30 31 31 31 31 32 32 32 32 32 33 33 34 35 36 36 37 37 37 37 38 38 39 40 40 40 41 41 41 41 40 40 40 39 39 38
114 111 108 105 102 100 98 95 92 89 86 82 79 76 74 72 69 67 65 62 60 57 55 53 51 49 47 46 44 43 42 41 39 38 37 36 36 35 34 34 33 33 33 32 32 31 31 31 31 31 31 31 31 32 32 32 32 32 32 33 33 34 35 36 37 37 37 38 38 38 39 39 40 40 41 41 42 42 42 41 41 41 40 40 40 39
109 106 103 101 98 96 94 91 88 85 81 78 75 73 71 69 67 64 62 59 57 55 52 50 48 47 45 44 43 42 40 39 38 37 36 35 35 34 34 33 33 32 32 32 32 31 31 31 31 31 31 31 32 32 32 33 33 33 33 33 34 35 36 37 37 38 38 38 39 39 40 40 41 41 42 42 43 43 43 42 42 41 41 41 40 40
104 102 99 97 95 92 90 87 84 80 77 75 72 70 68 66 64 61 59 57 54 52 50 48 46 45 43 42 41 40 39 38 37 36 35 34 34 33 33 33 32 32 32 32 32 31 31 31 31 31 32 32 32 33 33 33 33 33 34 34 35 36 37 37 38 39 39 39 40 40 41 41 42 43 43 44 44 44 44 44 43 42 42 42 41 41
100 97 95 93 91 88 85 82 79 77 74 72 69 67 65 63 61 58 56 54 51 49 47 46 44 43 42 41 40 38 37 36 35 35 34 33 33 33 33 32 32 32 32 32 31 31 31 31 32 32 32 33 33 33 33 34 34 34 34 35 35 36 37 38 39 39 40 40 41 41 42 42 43 44 45 45 46 46 45 45 44 44 43 43 42 42
96 94 91 89 86 84 81 78 76 73 71 68 67 65 62 60 58 56 53 51 49 47 45 44 42 41 40 39 38 37 36 35 35 34 33 33 33 33 32 32 32 32 31 31 31 32 31 32 32 32 33 33 34 34 34 34 34 34 35 35 36 37 38 39 40 40 41 41 41 42 43 44 44 45 46 47 47 47 47 47 46 45 44 44 43 43
92 90 87 85 82 80 77 74 72 70 68 66 64 62 60 57 55 53 51 48 46 45 43 42 41 40 39 38 37 36 35 35 34 33 33 32 32 32 32 32 32 31 31 31 31 32 32 32 33 33 33 34 34 35 35 35 35 35 35 36 37 38 39 40 41 41 42 42 43 43 44 45 46 47 48 48 49 49 49 48 48 47 46 45 44 44
88 86 83 81 78 76 73 71 69 67 65 63 61 58 56 54 52 50 48 46 44 43 41 40 39 38 37 37 36 35 35 34 33 33 32 32 32 32 31 31 31 32 31 31 31 32 33 33 33 34 34 34 35 35 35 35 35 36 36 37 38 39 40 41 42 42 43 43 44 44 45 46 47 48 49 50 50 51 51 50 49 48 47 47 46 45
84 82 79 77 74 72 70 68 66 63 61 59 57 55 53 51 49 47 45 44 42 41 40 39 38 37 36 36 35 34 34 33 33 32 31 31 32 32 31 31 31 32 32 32 32 32 33 34 34 34 35 35 35 36 36 36 36 36 37 38 39 40 41 42 43 43 44 44 45 46 47 48 49 50 51 52 52 52 52 52 51 50 49 48 47 46
80 78 75 73 71 69 67 65 63 61 58 56 54 52 50 48 46 45 43 42 40 39 38 37 37 36 35 35 34 34 33 32 32 32 31 31 31 32 31 31 31 32 32 32 33 33 34 34 35 35 35 36 36 36 36 36 37 37 38 39 40 41 42 43 44 44 45 45 46 47 48 49 50 51 52 53 54 54 54 53 52 52 50 49 48 47
76 74 72 69 67 65 64 62 60 58 56 53 51 49 47 46 44 42 41 40 39 38 37 36 36 35 35 34 33 33 32 32 32 31 31 31 31 32 32 32 32 32 32 33 33 34 34 35 36 36 36 37 37 37 37 37 38 38 39 40 41 43 44 44 45 45 46 47 48 49 50 51 52 53 54 55 55 55 55 55 54 53 52 50 49 48
72 70 68 66 64 62 61 59 57 55 53 51 48 47 45 43 42 40 39 38 37 37 36 35 35 34 34 33 32 32 31 31 31 31 31 31 32 32 32 32 32 32 33 33 34 34 35 36 36 37 37 37 37 37 38 38 39 39 40 41 42 44 45 45 46 47 47 48 49 50 51 52 53 54 55 56 56 57 56 56 55 54 52 51 50 49
69 67 65 63 61 60 58 56 54 52 50 48 46 44 42 41 40 38 37 37 36 36 35 35 34 34 33 32 32 31 31 31 31 31 31 32 32 32 33 33 33 33 34 34 35 35 36 36 37 37 37 38 38 38 39 39 39 40 41 43 44 45 46 46 47 48 49 50 51 52 53 54 55 56 57 57 58 58 57 57 56 54 53 52 51 50
66 64 62 61 59 57 55 53 51 49 47 45 43 42 40 39 38 37 36 36 35 35 35 34 34 33 32 32 31 31 31 31 31 32 32 32 33 33 33 34 34 34 34 35 36 36 36 37 37 38 38 38 39 39 40 40 41 42 43 44 45 46 47 48 48 49 50 51 52 53 54 55 56 57 58 59 59 58 58 57 56 55 54 52 51 50
63 61 60 58 56 55 53 51 49 47 45 43 41 40 38 37 37 36 36 35 35 35 34 34 33 33 32 32 31 32 32 32 32 32 33 33 33 34 34 34 35 35 35 36 36 37 37 37 38 38 39 39 40 40 41 41 42 43 44 46 46 47 48 49 49 50 51 53 54 55 56 57 58 59 59 60 59 59 58 57 56 55 54 53 52 51
60 59 57 56 54 52 50 48 46 44 43 41 39 38 37 36 36 35 35 35 35 34 34 33 33 32 32 32 32 32 32 33 33 33 34 34 34 34 35 35 36 36 36 37 37 37 37 38 38 39 40 40 41 41 42 42 43 45 46 47 48 48 49 50 51 52 53 54 55 57 58 59 59 60 60 60 60 59 58 57 56 55 54 53 52 51
58 57 55 54 52 50 48 46 44 42 41 39 38 37 36 35 35 35 35 34 34 34 33 33 33 32 32 32 32 33 33 34 34 34 35 35 35 35 36 36 36 37 37 37 37 37 38 38 39 40 40 41 42 42 43 44 45 46 47 48 49 50 50 51 52 53 55 56 57 59 60 60 61 61 61 60 60 59 58 57 56 55 54 53 52 52
56 54 53 51 49 47 45 44 42 41 39 38 37 36 35 35 35 35 34 34 34 33 33 33 33 33 33 33 33 34 34 34 35 35 35 36 36 36 36 37 37 37 37 37 38 38 38 39 40 40 41 42 42 43 44 45 47 48 49 50 51 51 52 53 54 55 56 58 59 60 61 62 62 62 61 60 59 58 57 56 56 55 54 53 52 52
54 52 51 49 47 45 43 42 40 39 38 37 36 35 35 35 34 34 34 34 34 33 33 33 33 33 33 34 34 35 35 35 36 36 36 36 37 37 37 37 37 37 37 38 38 39 39 40 41 41 42 42 43 44 46 47 48 49 50 51 52 53 54 54 55 56 58 59 61 62 62 62 62 62 61 60 59 58 57 56 55 55 54 53 53 52
51 50 48 47 45 43 41 40 39 37 36 36 35 35 34 34 34 34 34 34 34 34 33 33 34 34 34 35 35 35 36 36 36 36 37 37 37 37 37 37 37 37 38 38 39 40 40 41 41 42 43 43 44 45 47 48 49 50 51 52 53 54 55 56 57 58 59 61 62 63 63 63 62 61 60 59 58 57 57 56 55 55 54 54 53 53
49 48 46 45 43 41 40 38 37 36 35 34 34 34 33 33 33 33 34 34 34 34 34 34 34 35 35 36 36 36 36 36 37 37 37 37 37 37 37 37 38 38 38 39 40 40 41 42 42 43 43 44 45 47 48 49 50 51 52 53 54 55 57 58 59 60 61 62 63 63 63 62 61 60 59 58 58 57 57 56 56 55 55 55 54 54
47 46 44 43 41 40 38 37 36 34 34 33 33 33 33 33 33 33 34 34 34 35 35 35 35 36 36 37 37 37 37 37 37 37 37 37 37 37 37 38 38 39 39 40 40 41 42 43 43 44 45 46 47 48 49 50 51 52 53 54 55 57 58 59 61 62 63 63 63 63 62 61 60 60 59 58 58 57 57 57 57 56 56 56 55 55
45 44 42 41 40 39 38 36 35 34 33 32 32 32 33 33 33 33 34 34 35 35 36 36 36 37 37 37 37 37 37 38 37 37 37 37 37 38 38 38 39 39 40 40 41 42 43 44 45 45 46 47 48 49 49 50 52 53 54 56 57 58 59 61 62 63 63 63 63 62 61 60 60 59 59 59 58 58 57 57 57 57 57 57 56 56
43 42 41 40 39 38 37 36 34 33 33 32 32 32 32 33 33 34 34 35 35 36 36 36 37 37 38 38 38 38 38 38 38 38 38 38 38 38 38 39 39 40 40 41 42 43 44 45 46 46 47 48 49 50 51 52 53 54 56 57 58 59 61 62 63 63 63 63 62 62 61 60 60 59 59 59 59 59 58 58 58 58 58 58 57 57
41 40 39 39 38 37 36 35 34 33 33 32 32 32 33 33 34 34 35 35 35 36 36 37 37 38 38 38 38 38 38 38 38 38 38 38 38 39 39 39 40 40 41 42 43 44 45 46 46 47 48 49 50 51 53 54 54 55 57 58 59 60 61 62 63 62 62 62 61 61 60 60 60 60 60 60 60 60 59 59 59 58 58 58 58 58
40 39 38 38 37 36 36 35 34 33 33 33 32 33 33 33 34 34 35 35 36 36 37 37 37 38 38 38 38 38 38 38 39 39 39 39 39 39 39 40 40 41 42 43 44 45 46 47 47 48 49 50 51 53 54 55 56 57 58 59 60 61 61 62 62 62 61 61 61 60 60 60 60 60 61 61 61 61 60 60 59 59 59 58 58 58
38 37 37 36 35 35 34 33 33 33 33 33 33 33 33 34 34 34 35 35 36 36 36 37 37 38 38 38 38 38 38 39 39 39 39 39 39 40 40 41 41 42 43 44 45 46 47 48 48 49 50 51 53 54 55 56 57 58 58 59 60 60 61 61 61 60 60 60 60 60 61 61 61 61 61 62 62 61 61 60 60 59 59 59 58 58
37 36 35 34 34 33 32 32 31 32 32 32 33 33 34 34 35 35 35 35 35 36 36 36 37 37 38 38 38 38 38 38 39 39 39 39 40 40 41 42 43 43 45 45 46 47 48 49 50 51 52 53 54 55 56 57 58 59 59 60 60 60 60 60 60 60 60 60 60 61 61 61 62 62 62 62 62 62 62 61 60 60 59 59 59 58
Wind_Direction
301 301 301 302 302 302 303 303 304 304 305 305 306 306 307 307 307 307 308 308 308 308 308 308 308 308 308 308 308 308 308 307 307 307 306 306 306 306 305 305 305 305 305 304 304 304 304 303 303 302 302 301 301 300 299 299 299 298 298 297 296 295 294 294 294 294 293 293 294 294 294 294 294 294 294 294 294 294 294 294 293 293 292 291 291 290
300 301 301 302 302 302 303 303 304 304 305 305 306 306 306 307 307 307 307 307 307 307 307 307 307 308 308 308 307 307 307 307 306 306 306 305 305 305 305 304 304 304 304 304 304 303 303 303 302 302 301 300 300 299 298 298 298 297 297 296 295 294 293 293 293 293 293 293 293 293 293 293 293 294 294 294 294 294 294 293 293 292 291 291 290 289
300 300 301 302 302 303 303 303 304 304 305 305 306 306 306 306 307 307 307 307 307 307 307 307 307 307 307 307 307 307 306 306 305 305 305 304 304 304 304 304 304 304 303 303 303 303 302 302 301 301 300 299 299 298 297 297 297 296 295 294 293 292 292 292 292 291 292 292 292 292 292 292 293 293 293 294 294 294 293 293 292 292 291 290 289 288
300 301 301 302 302 302 303 303 304 304 305 305 305 306 306 306 306 306 306 306 306 306 307 307 307 307 307 306 306 306 305 305 304 304 304 303 303 303 303 303 303 303 303 303 302 302 301 301 300 300 299 298 297 297 296 296 295 294 293 292 292 291 291 290 291 291 291 291 291 291 292 292 292 293 293 294 294 294 293 293 292 291 290 289 289 288
300 301 301 302 302 302 303 303 304 304 304 305 305 305 306 306 306 306 306 306 306 306 306 306 306 306 306 306 305 305 304 304 303 303 303 303 303 303 303 303 303 303 302 302 301 301 301 300 299 299 298 297 296 296 295 295 294 293 291 291 290 290 289 289 290 290 290 290 291 291 291 292 293 293 294 294 294 294 293 293 292 291 290 289 288 287
300 300 301 301 302 302 303 303 303 304 304 305 305 305 305 305 305 305 305 305 306 306 306 306 306 305 305 305 304 304 303 303 302 302 302 302 302 302 302 302 302 302 302 301 301 300 300 299 298 297 297 296 295 295 294 293 292 291 290 289 289 288 288 289 289 289 289 290 290 291 291 292 293 294 294 294 295 294 294 294 293 291 290 289 287 286
300 300 301 301 301 302 302 303 303 304 304 304 304 305 305 305 305 305 305 305 305 305 305 305 305 304 304 304 303 303 302 302 302 301 301 301 302 302 302 302 301 301 301 300 300 299 299 298 297 296 296 295 294 293 292 291 290 289 288 288 287 288 288 288 288 289 289 289 290 291 292 293 294 294 295 295 295 295 295 294 293 292 290 288 287 286
300 300 300 301 301 302 302 302 303 303 304 304 304 304 304 304 304 304 304 305 305 305 304 304 304 303 303 302 302 302 301 301 301 301 301 301 301 301 301 301 301 300 300 299 299 298 297 297 296 295 294 293 292 291 290 289 288 287 287 287 287 287 287 287 288 288 289 289 290 291 293 294 295 296 296 296 297 296 296 295 294 292 290 288 287 285
299 300 300 300 301 301 302 302 303 303 303 303 303 304 304 304 304 304 304 304 304 304 304 303 303 302 302 301 301 301 300 300 300 300 300 301 301 301 300 300 300 299 299 298 298 297 296 295 294 294 293 291 290 289 288 287 287 286 286 286 286 286 287 287 287 288 289 290 291 292 294 295 296 297 297 297 298 297 297 296 295 293 291 289 286 285
299 299 300 300 301 301 301 302 302 302 303 303 303 303 303 303 303 303 303 303 303 303 303 302 302 301 301 300 300 300 300 300 300 300 300 300 300 300 300 299 299 298 298 297 296 296 295 294 293 292 291 289 288 287 286 286 285 285 285 285 285 286 286 287 287 288 289 290 292 294 295 296 297 298 298 298 298 298 297 296 295 293 291 289 286 284
299 299 299 300 300 301 301 302 302 302 302 303 303 303 303 303 303 303 303 302 302 302 302 301 301 300 300 299 299 299 299 299 299 299 300 299 299 299 299 298 298 297 297 296 295 294 293 292 291 290 289 287 286 285 285 284 284 284 284 285 285 285 286 286 287 288 289 291 293 294 296 297 298 299 299 299 299 298 298 297 295 294 292 289 287 284
298 299 299 300 300 301 301 301 302 302 302 302 302 303 303 303 302 302 302 301 301 301 300 300 300 299 299 299 299 299 299 299 299 299 299 299 298 298 298 297 297 296 295 295 294 293 292 290 289 287 286 285 284 284 283 283 283 283 284 284 284 285 285 286 287 288 290 292 294 295 297 298 299 299 299 299 299 299 298 297 296 294 293 290 288 285
298 299 299 300 300 301 301 301 301 302 302 302 302 302 302 302 302 301 301 301 300 300 300 299 299 298 298 298 298 298 298 298 298 298 298 298 297 297 296 296 295 295 294 293 292 291 290 288 287 285 284 283 283 283 282 282 282 283 283 283 284 284 285 285 287 289 290 292 294 296 297 298 299 300 299 299 299 299 298 298 296 295 293 291 289 286
299 299 299 300 300 300 301 301 301 302 302 302 302 302 301 301 301 301 300 300 300 299 299 298 298 298 298 298 297 298 298 298 298 297 297 297 296 296 295 295 294 293 292 291 290 289 287 286 285 283 283 282 282 282 282 282 282 282 282 283 283 283 284 285 287 289 290 293 294 296 298 298 299 300 300 300 300 299 299 298 297 296 294 293 290 287
299 299 299 300 300 300 301 301 301 301 301 301 301 301 301 300 300 300 299 299 299 299 298 298 297 297 297 297 297 297 297 297 297 296 296 295 295 294 294 293 292 291 290 289 288 286 285 284 283 282 281 281 281 281 281 281 281 281 282 282 283 283 284 285 287 289 291 293 294 296 297 298 299 299 300 300 300 300 299 299 298 297 296 294 292 289
299 299 299 300 300 300 300 301 301 301 301 301 300 300 300 299 299 299 299 299 298 298 297 297 297 296 296 296 296 296 296 296 296 295 295 294 293 293 292 291 290 289 288 287 285 284 283 282 281 280 280 280 280 280 280 280 281 281 281 281 282 283 284 285 287 289 291 293 294 296 297 298 299 299 299 300 300 300 300 300 299 298 297 295 293 290
298 299 299 299 300 300 300 300 300 300 300 300 299 299 299 299 299 299 298 298 298 297 297 296 296 296 296 296 296 295 295 295 294 294 293 293 292 291 291 289 288 287 285 284 282 281 281 280 279 279 279 279 279 279 279 279 279 280 280 280 281 282 283 285 287 289 290 292 294 295 296 298 298 299 299 300 300 301 300 300 300 298 297 296 294 292
298 298 299 299 299 299 299 300 299 299 299 299 299 299 299 299 298 298 298 297 297 296 296 295 295 295 295 295 295 294 294 293 293 292 291 291 290 290 289 287 286 284 283 281 280 279 279 278 277 277 277 277 277 278 278 278 278 279 279 280 281 282 283 285 286 288 290 292 293 295 296 297 298 299 300 300 301 301 301 300 300 299 298 296 294 292
298 298 298 299 299 299 299 299 299 299 298 298 298 298 298 298 298 298 297 297 296 295 295 295 295 294 294 294 293 293 293 292 291 290 290 289 288 288 286 285 283 282 280 279 278 277 277 276 276 276 276 276 276 276 276 277 277 278 278 279 280 281 283 285 286 288 290 291 293 295 296 297 298 299 300 301 301 301 301 301 300 299 298 297 295 293
297 298 298 298 298 298 298 298 298 298 298 298 298 298 298 298 297 297 296 296 295 294 294 294 294 293 293 293 292 292 291 290 289 288 288 287 287 285 284 282 281 279 278 277 276 276 275 275 274 274 274 274 275 275 275 276 276 277 278 279 280 282 283 285 287 288 290 292 293 295 296 298 299 300 301 301 302 302 302 301 301 300 298 297 295 293
297 297 297 297 298 297 297 297 297 297 297 298 298 298 297 297 297 296 295 295 294 294 293 293 293 293 292 291 291 290 289 288 288 287 286 286 285 283 282 280 278 277 276 275 275 274 274 273 273 273 273 273 274 274 275 275 276 277 278 279 281 282 284 285 287 288 290 292 294 295 297 298 299 300 301 302 302 302 302 302 301 300 299 297 295 294
296 297 297 297 297 297 297 297 297 297 297 297 297 297 297 296 295 295 294 294 293 293 293 292 292 291 291 290 289 288 288 287 286 285 285 284 283 281 279 278 276 275 274 274 273 273 273 272 272 272 272 273 273 274 275 275 276 277 278 280 281 283 284 286 287 289 291 292 294 296 297 298 300 301 302 302 303 303 303 302 301 300 299 298 296 294
296 296 296 296 296 296 296 296 296 297 297 297 297 296 296 295 294 293 293 293 292 292 292 291 291 290 289 288 287 287 286 285 284 283 283 282 280 279 277 276 274 273 272 272 272 272 271 271 271 271 272 272 273 274 275 276 277 278 279 280 282 284 285 287 288 289 291 293 294 296 297 299 300 301 302 303 303 303 303 303 302 301 300 298 296 294
295 296 296 296 296 296 296 296 296 296 296 296 296 295 294 294 293 292 292 292 291 291 291 290 290 289 288 287 286 285 284 284 283 282 281 280 278 277 275 274 272 271 271 271 271 271 271 271 271 271 272 272 273 274 275 276 277 278 280 281 283 284 286 287 288 290 291 293 295 296 298 299 300 302 303 303 304 304 304 303 303 301 300 299 297 295
295 295 295 295 295 295 295 295 295 296 295 295 295 294 293 293 292 292 291 291 291 290 290 289 288 287 286 285 285 284 283 282 281 280 278 277 276 274 273 271 270 269 269 270 270 270 270 270 270 271 272 272 273 274 275 276 278 279 280 282 283 285 286 287 289 290 292 293 295 297 298 299 301 302 303 304 304 304 304 304 303 302 301 299 297 295
295 295 295 295 295 295 295 295 295 295 295 294 293 293 292 292 291 291 291 290 290 289 289 288 287 286 285 284 283 282 281 280 279 277 276 275 273 272 270 269 268 268 268 268 268 269 269 269 270 271 272 273 274 274 276 277 278 279 281 282 284 285 286 288 289 290 292 294 295 297 299 300 301 303 303 304 305 305 305 304 303 302 301 299 298 296
294 294 294 294 294 294 294 294 294 294 294 293 292 292 291 291 291 290 290 289 289 288 287 286 285 284 283 282 281 280 279 278 277 275 274 272 270 269 268 267 267 266 266 267 267 268 268 269 270 271 272 273 274 275 276 277 279 280 281 283 284 285 287 288 289 291 292 294 296 298 299 301 302 303 304 304 305 305 305 304 304 303 301 300 298 296
294 294 294 294 294 294 294 294 294 293 293 292 292 291 291 290 290 290 289 289 288 287 286 285 284 283 282 281 280 279 277 276 274 273 271 270 268 266 266 266 266 265 265 266 266 267 268 269 270 271 272 273 274 276 277 278 279 280 282 283 284 286 287 288 289 291 293 294 296 298 300 301 302 303 304 305 305 305 305 305 304 303 302 300 299 297
293 293 293 293 293 293 293 293 293 292 292 292 291 291 290 290 289 289 288 288 287 286 284 283 282 281 280 279 278 277 275 273 272 270 269 267 265 264 265 264 264 264 264 265 266 267 267 268 270 271 273 274 275 276 277 279 280 281 282 284 285 286 287 288 290 291 293 295 297 298 300 301 303 304 304 305 305 305 305 305 304 303 302 301 299 297
293 293 293 293 293 293 293 293 292 292 291 291 291 290 290 289 289 288 287 286 285 284 283 282 281 279 278 277 276 274 272 271 269 268 267 265 263 263 263 263 263 263 264 264 265 266 268 269 270 272 273 275 276 277 278 280 281 282 283 284 285 286 287 289 290 292 293 295 297 299 300 302 303 304 304 305 305 305 305 305 304 303 302 301 299 297
293 293 292 292 292 292 292 292 292 291 291 291 290 290 289 288 287 287 286 285 283 282 281 280 279 278 276 275 274 272 270 269 268 266 265 263 262 262 262 262 262 263 264 264 265 266 268 270 271 273 274 276 277 278 279 280 282 283 284 285 286 287 288 289 290 292 294 295 297 299 301 302 303 304 304 305 305 305 305 305 304 303 302 301 299 297
292 292 292 292 292 292 292 292 291 291 290 290 289 289 288 287 286 285 284 283 282 280 279 278 277 275 274 273 271 270 268 267 266 265 263 262 261 261 261 261 262 263 264 265 266 268 270 271 273 274 275 276 278 279 280 281 283 284 285 286 286 287 288 289 291 292 294 296 298 299 301 302 303 304 304 305 305 305 305 304 304 303 302 301 299 297
292 292 292 292 292 292 291 291 291 290 290 289 288 287 287 286 285 284 282 281 280 278 277 276 275 273 272 271 269 268 266 265 264 263 262 261 260 260 261 261 261 263 265 266 267 269 270 272 274 275 276 277 278 280 281 282 283 285 286 286 287 288 288 290 291 293 295 296 298 299 300 302 302 303 304 304 304 304 304 304 303 303 302 300 299 297
292 291 291 291 291 291 291 291 290 290 289 288 287 286 285 284 283 282 280 279 278 276 275 274 273 271 270 269 267 266 264 263 262 261 261 260 260 260 261 261 262 263 265 267 268 270 271 273 274 276 277 278 279 281 282 283 284 285 286 287 288 288 289 290 292 293 295 296 298 299 300 301 302 303 303 304 304 304 304 303 303 302 301 300 298 297
291 291 291 291 291 291 290 290 289 289 288 287 286 285 284 282 281 280 278 277 276 274 273 272 271 270 268 267 265 264 262 261 260 260 259 259 259 260 260 261 263 264 266 267 269 271 272 274 275 277 278 280 281 282 283 284 285 286 287 287 288 288 289 291 292 294 295 297 298 299 300 301 302 302 303 303 303 303 303 303 302 301 300 299 298 296
291 290 290 290 290 290 290 289 288 288 287 285 284 283 282 280 279 278 276 275 274 272 271 270 269 267 266 265 263 261 260 260 259 258 258 258 259 260 261 262 263 265 267 268 270 271 273 274 276 278 279 281 282 283 284 285 286 287 287 287 288 288 289 291 292 294 295 297 298 299 300 301 301 302 302 302 303 303 302 302 301 300 299 298 297 295
290 290 290 290 290 289 289 288 287 286 285 284 283 281 280 278 277 275 274 272 271 270 269 268 266 265 264 262 261 259 259 258 258 257 257 258 258 260 261 263 264 266 267 269 271 272 274 276 278 279 281 282 283 285 286 286 287 287 287 287 288 289 290 291 293 294 296 297 298 299 300 300 301 301 302 302 302 302 302 301 300 300 299 297 296 295
289 290 289 289 289 288 288 287 286 285 284 282 281 280 278 276 275 273 272 270 269 268 267 265 264 262 261 259 258 257 257 257 257 256 257 257 259 260 262 263 265 266 268 270 271 273 275 277 279 281 282 283 284 285 286 287 287 287 287 288 288 289 291 292 293 295 296 297 298 299 299 300 300 301 301 301 301 301 301 300 300 299 298 297 296 294
289 289 289 289 288 287 287 286 285 283 282 281 279 278 276 274 273 271 270 268 267 266 264 263 262 260 258 257 256 255 255 255 255 256 257 258 259 260 262 264 266 267 269 271 273 275 277 279 280 282 283 285 285 286 287 287 287 288 288 288 289 290 291 293 294 295 296 297 298 299 299 300 300 300 301 301 301 301 300 300 299 298 297 296 295 294
288 288 288 288 287 286 285 284 283 282 281 279 278 276 274 272 271 269 268 266 265 264 262 261 259 258 257 255 254 254 254 254 255 256 257 258 260 261 263 265 267 269 270 272 274 276 278 280 281 282 284 285 286 287 288 288 288 288 288 289 290 291 292 293 294 296 297 298 298 299 299 300 300 300 300 300 300 300 299 299 298 297 297 296 295 294
288 287 287 286 286 285 284 283 282 281 279 278 276 274 272 271 269 267 266 265 263 261 260 259 257 256 255 255 254 254 254 255 255 256 257 259 260 262 264 266 268 270 272 274 276 278 279 280 282 283 284 285 286 287 287 288 288 288 289 289 290 292 293 294 295 296 297 298 298 299 299 299 300 300 300 300 299 299 299 298 298 297 296 296 295 294
287 286 286 285 284 283 283 281 281 279 278 277 275 273 271 270 268 266 265 263 261 259 257 256 255 254 253 253 254 254 255 256 256 257 259 260 262 263 265 267 270 272 274 276 277 279 280 281 282 284 285 286 287 287 287 287 288 288 289 290 291 293 294 294 296 297 297 298 298 299 299 299 299 300 300 299 299 299 298 298 297 297 296 295 295 294
285 285 284 284 283 282 281 280 279 278 277 276 274 273 271 269 267 266 264 262 259 257 256 255 254 253 252 253 253 255 256 257 258 259 260 262 263 265 267 270 272 274 275 277 279 280 281 282 283 284 285 286 286 286 287 287 288 289 290 291 292 293 294 295 296 297 298 298 298 298 299 299 299 299 299 299 299 298 298 297 297 296 296 295 295 294
284 284 283 282 281 280 280 278 278 277 276 275 274 272 271 268 267 265 263 260 258 257 255 254 253 253 252 252 253 255 256 258 259 260 262 264 266 268 270 272 274 275 277 278 279 281 282 283 284 285 285 286 286 286 286 287 288 289 290 291 293 294 295 296 297 298 298 298 298 298 299 299 299 299 299 298 298 298 298 297 297 296 296 295 295 294
283 282 281 280 280 279 277 277 276 275 274 273 272 271 269 267 265 263 261 260 258 256 255 254 253 253 252 253 254 256 257 259 261 263 264 266 268 270 272 274 275 277 278 279 281 282 283 284 285 285 285 285 286 286 287 288 289 290 291 292 293 295 296 297 297 298 298 298 298 298 299 299 299 299 298 298 298 298 298 297 297 297 296 295 295 294
281 281 280 279 278 277 276 275 274 273 271 270 269 268 266 265 263 262 261 259 258 256 255 255 254 253 253 254 256 257 259 261 263 265 267 269 271 272 274 275 277 278 280 281 282 283 284 284 285 285 285 286 286 287 288 289 290 291 292 293 295 296 297 297 298 298 298 298 298 299 299 299 299 298 298 298 298 298 298 297 297 297 296 296 295 294
280 279 278 278 277 276 275 273 272 270 268 267 266 265 264 262 262 261 260 259 258 257 256 256 255 255 256 257 259 260 262 263 265 267 269 271 272 274 275 277 278 280 281 282 283 284 284 284 285 285 286 287 287 288 289 290 291 292 293 294 296 297 297 298 298 298 298 298 298 299 299 299 299 298 298 298 298 298 298 298 297 297 296 296 295 294
279 278 278 277 276 275 274 272 271 269 267 265 264 263 261 260 260 259 259 259 258 258 257 257 257 258 259 260 262 263 265 266 268 270 271 273 274 276 277 279 280 281 282 283 283 283 284 284 285 286 287 288 288 289 289 290 291 293 294 296 297 297 298 298 298 298 298 298 298 298 299 299 299 299 299 299 299 298 298 298 297 297 296 296 295 295
278 277 277 276 276 275 274 273 271 269 267 265 263 261 260 259 258 258 258 259 259 258 258 259 259 260 261 263 264 266 267 269 270 271 273 274 276 278 279 280 281 282 283 283 283 284 284 285 285 286 287 288 288 289 290 291 293 294 295 296 297 298 298 298 298 298 298 298 298 298 299 299 299 299 299 299 299 298 298 298 297 297 296 296 295 295
276 276 276 276 276 276 275 273 272 270 268 266 263 261 260 258 258 258 258 259 259 259 260 260 261 262 263 264 266 267 269 270 272 273 275 276 278 279 281 282 282 283 283 283 284 284 285 286 286 287 287 288 289 290 291 293 294 296 297 297 298 298 298 298 298 298 298 298 298 299 299 299 299 299 300 300 299 299 298 298 298 297 297 296 296 295
275 275 275 275 275 275 275 274 272 270 268 266 264 262 260 259 259 258 259 259 259 260 261 261 262 263 264 266 267 269 270 272 273 275 277 278 280 281 282 282 282 283 284 284 285 285 286 287 287 288 288 289 290 292 293 295 296 297 298 298 298 298 298 298 298 298 298 298 298 299 299 299 300 300 300 300 300 299 299 298 298 298 297 297 297 296
Height
10597 10594 10593 10591 10590 10588 10585 10582 10580 10578 10576 10573 10569 10567 10565 10563 10559 10556 10554 10551 10548 10546 10543 10541 10538 10535 10532 10529 10526 10522 10519 10516 10513 10510 10507 10504 10501 10499 10498 10495 10493 10491 10489 10488 10486 10484 10483 10481 10479 10478 10476 10475 10474 10473 10471 10471 10469 10469 10468 10467 10466 10466 10465 10464 10464 10464 10463 10463 10463 10462 10461 10461 10460 10459 10459 10458 10458 10457 10456 10456 10455 10454 10454 10453 10453 10452
10591 10589 10587 10585 10584 10583 10580 10576 10574 10572 10570 10567 10564 10561 10559 10556 10553 10550 10547 10544 10542 10539 10537 10534 10532 10529 10526 10523 10519 10516 10513 10509 10506 10504 10501 10499 10496 10494 10492 10490 10488 10486 10484 10483 10481 10479 10478 10476 10475 10473 10472 10471 10469 10469 10468 10467 10466 10465 10464 10464 10463 10463 10462 10461 10461 10461 10460 10460 10459 10459 10459 10458 10458 10457 10456 10455 10454 10454 10453 10453 10453 10452 10451 10450 10450 10449
10586 10584 10581 10579 10578 10576 10574 10571 10568 10566 10563 10561 10558 10556 10553 10550 10547 10544 10541 10538 10535 10533 10530 10528 10525 10523 10519 10516 10513 10510 10506 10503 10500 10498 10496 10493 10491 10489 10487 10485 10483 10481 10479 10478 10476 10474 10473 10472 10471 10469 10468 10467 10466 10465 10464 10463 10463 10462 10461 10461 10460 10459 10459 10459 10458 10458 10458 10457 10456 10456 10456 10455 10454 10454 10453 10453 10452 10451 10451 10450 10449 10449 10448 10448 10447 10446
10580 10579 10576 10573 10571 10569 10566 10564 10563 10560 10558 10554 10552 10549 10547 10544 10540 10537 10534 10531 10529 10526 10524 10521 10519 10516 10513 10510 10507 10504 10501 10497 10494 10492 10489 10488 10486 10483 10482 10480 10478 10477 10475 10473 10472 10470 10469 10468 10466 10465 10464 10463 10462 10461 10461 10460 10459 10459 10458 10458 10457 10456 10456 10456 10455 10455 10454 10454 10454 10453 10453 10453 10452 10451 10451 10450 10449 10449 10448 10448 10447 10446 10446 10445 10444 10444
10573 10572 10570 10568 10565 10562 10559 10558 10556 10554 10551 10548 10546 10543 10541 10538 10534 10531 10528 10525 10522 10519 10517 10514 10512 10509 10506 10504 10501 10498 10494 10491 10489 10486 10484 10482 10480 10478 10477 10475 10474 10472 10470 10469 10468 10466 10464 10463 10462 10461 10460 10459 10458 10458 10457 10456 10456 10456 10455 10454 10454 10454 10453 10453 10453 10452 10451 10451 10451 10450 10450 10449 10449 10448 10448 10447 10446 10446 10445 10444 10444 10443 10443 10442 10442 10441
10567 10565 10564 10562 10559 10556 10554 10552 10550 10548 10545 10542 10539 10536 10534 10531 10529 10526 10522 10519 10516 10513 10511 10508 10505 10503 10500 10498 10494 10492 10489 10486 10483 10481 10479 10477 10475 10474 10472 10470 10469 10467 10466 10464 10463 10462 10461 10459 10458 10458 10456 10456 10455 10454 10454 10453 10453 10453 10452 10451 10451 10451 10451 10450 10449 10449 10449 10448 10448 10448 10447 10446 10446 10446 10445 10444 10444 10443 10443 10442 10441 10441 10440 10439 10439 10438
10562 10559 10557 10555 10553 10551 10548 10546 10544 10542 10540 10537 10533 10529 10527 10524 10523 10519 10517 10514 10511 10508 10504 10502 10499 10496 10494 10491 10488 10486 10483 10481 10478 10476 10474 10472 10471 10469 10467 10466 10464 10463 10461 10460 10459 10458 10456 10456 10454 10454 10453 10452 10451 10451 10451 10450 10450 10449 10449 10449 10448 10448 10448 10447 10446 10446 10446 10445 10445 10444 10444 10444 10443 10443 10442 10441 10441 10440 10439 10439 10438 10438 10437 10436 10436 10436
10557 10554 10551 10549 10547 10545 10543 10540 10538 10536 10534 10533 10529 10525 10521 10518 10516 10513 10510 10508 10505 10502 10499 10496 10493 10490 10488 10485 10483 10480 10478 10475 10473 10471 10469 10468 10466 10464 10463 10461 10459 10458 10457 10456 10454 10454 10453 10452 10451 10450 10449 10449 10448 10448 10448 10447 10447 10446 10446 10446 10446 10445 10444 10444 10444 10443 10443 10443 10442 10441 10441 10441 10440 10439 10439 10438 10438 10438 10437 10436 10436 10435 10434 10434 10433 10433
10552 10549 10547 10544 10542 10540 10538 10535 10532 10529 10528 10526 10523 10520 10517 10514 10510 10506 10503 10501 10499 10496 10494 10490 10487 10484 10481 10479 10477 10474 10472 10469 10468 10466 10464 10463 10461 10459 10458 10457 10456 10454 10453 10452 10451 10450 10449 10448 10447 10446 10446 10446 10445 10445 10444 10444 10444 10444 10443 10443 10443 10442 10441 10441 10441 10440 10440 10439 10439 10438 10438 10438 10437 10436 10436 10435 10435 10434 10434 10433 10433 10432 10431 10431 10431 10430
10546 10544 10541 10539 10536 10534 10533 10531 10528 10524 10522 10520 10517 10514 10511 10509 10506 10502 10498 10494 10492 10490 10488 10484 10481 10478 10476 10473 10471 10469 10467 10464 10463 10461 10459 10458 10457 10455 10454 10453 10451 10450 10449 10448 10447 10446 10445 10444 10444 10443 10443 10443 10442 10442 10441 10441 10441 10441 10440 10440 10439 10439 10439 10438 10438 10438 10437 10436 10436 10435 10435 10434 10434 10433 10433 10433 10432 10431 10431 10430 10429 10429 10429 10428 10428 10427
10539 10538 10535 10533 10530 10528 10526 10524 10521 10519 10517 10514 10511 10508 10504 10502 10500 10498 10494 10489 10486 10484 10481 10478 10475 10473 10470 10468 10465 10463 10461 10459 10458 10456 10455 10454 10453 10451 10449 10448 10447 10446 10445 10444 10443 10443 10442 10441 10441 10440 10440 10439 10439 10439 10439 10438 10438 10438 10438 10437 10436 10436 10436 10435 10435 10434 10434 10433 10433 10433 10432 10431 10431 10430 10429 10429 10429 10428 10428 10427 10427 10426 10426 10425 10424 10424
10533 10531 10529 10527 10524 10521 10519 10516 10514 10512 10509 10508 10505 10502 10498 10494 10493 10491 10488 10484 10481 10478 10475 10472 10469 10466 10464 10462 10460 10458 10456 10454 10453 10452 10451 10449 10448 10446 10445 10444 10443 10442 10441 10441 10440 10439 10439 10438 10438 10437 10437 10436 10436 10436 10436 10436 10435 10435 10434 10434 10434 10433 10433 10433 10432 10431 10431 10431 10430 10429 10429 10429 10428 10428 10427 10426 10426 10425 10424 10424 10424 10423 10423 10422 10422 10421
10527 10524 10523 10520 10517 10514 10513 10510 10508 10505 10503 10500 10498 10495 10492 10489 10486 10484 10481 10478 10475 10472 10469 10466 10463 10460 10458 10456 10454 10453 10451 10449 10449 10448 10446 10445 10444 10443 10441 10440 10439 10438 10438 10437 10436 10436 10435 10435 10434 10434 10434 10434 10433 10433 10433 10433 10432 10432 10431 10431 10431 10431 10430 10430 10429 10429 10428 10428 10428 10427 10426 10426 10425 10424 10424 10423 10423 10422 10422 10421 10421 10420 10419 10419 10419 10418
10520 10518 10516 10513 10509 10507 10505 10503 10501 10498 10496 10493 10491 10489 10486 10483 10480 10478 10476 10473 10469 10466 10463 10460 10457 10454 10453 10451 10449 10448 10446 10445 10444 10443 10442 10441 10439 10439 10438 10437 10436 10435 10434 10434 10433 10433 10433 10432 10432 10431 10431 10431 10431 10430 10430 10429 10429 10429 10429 10428 10428 10428 10428 10427 10427 10426 10426 10425 10425 10424 10424 10423 10423 10422 10421 10421 10420 10419 10419 10418 10418 10417 10416 10416 10415 10415
10513 10511 10509 10506 10503 10500 10498 10496 10494 10492 10489 10486 10484 10482 10479 10476 10474 10471 10469 10466 10463 10459 10457 10454 10451 10449 10447 10446 10444 10443 10442 10441 10439 10438 10437 10436 10436 10435 10434 10433 10432 10431 10431 10431 10430 10429 10429 10429 10429 10428 10428 10428 10428 10428 10427 10427 10426 10426 10426 10426 10425 10425 10424 10424 10424 10424 10423 10423 10422 10422 10421 10421 10419 10419 10418 10418 10417 10416 10416 10415 10414 10414 10413 10413 10412 10411
10506 10504 10502 10499 10496 10493 10491 10489 10488 10485 10482 10479 10477 10475 10473 10470 10468 10465 10463 10459 10456 10453 10450 10448 10446 10443 10441 10440 10439 10439 10438 10436 10435 10434 10433 10432 10431 10431 10431 10430 10429 10428 10428 10428 10427 10427 10426 10426 10426 10426 10425 10425 10424 10424 10424 10424 10424 10423 10423 10423 10423 10423 10422 10422 10421 10421 10421 10420 10419 10419 10419 10418 10417 10416 10416 10414 10414 10413 10413 10412 10411 10410 10409 10409 10409 10408
10499 10498 10495 10493 10489 10487 10484 10483 10480 10478 10476 10473 10471 10468 10466 10464 10461 10459 10456 10453 10450 10447 10444 10442 10440 10439 10437 10435 10434 10434 10434 10433 10431 10429 10429 10428 10428 10427 10427 10426 10426 10425 10424 10424 10424 10424 10424 10423 10423 10423 10423 10422 10422 10422 10421 10421 10421 10421 10421 10420 10420 10419 10419 10419 10419 10418 10418 10418 10417 10416 10416 10415 10414 10414 10413 10412 10411 10410 10409 10409 10408 10407 10406 10406 10405 10405
10493 10491 10488 10486 10483 10480 10478 10476 10474 10471 10469 10466 10464 10461 10459 10457 10454 10452 10449 10446 10444 10441 10438 10436 10435 10434 10433 10431 10430 10429 10429 10428 10427 10426 10425 10424 10424 10424 10423 10423 10422 10422 10421 10421 10421 10421 10421 10421 10420 10420 10420 10419 10419 10419 10419 10419 10418 10418 10418 10418 10418 10417 10417 10416 10416 10416 10416 10415 10414 10414 10413 10413 10412 10411 10410 10409 10408 10407 10406 10406 10404 10404 10403 10403 10402 10401
10486 10484 10482 10479 10477 10474 10471 10469 10467 10464 10462 10459 10457 10455 10453 10450 10448 10445 10443 10440 10438 10435 10433 10431 10430 10429 10428 10427 10426 10425 10425 10424 10423 10422 10421 10421 10421 10420 10420 10419 10419 10418 10418 10418 10418 10418 10418 10418 10418 10417 10417 10417 10416 10416 10416 10416 10416 10416 10415 10415 10414 10414 10414 10414 10413 10413 10413 10412 10412 10411 10411 10409 10409 10408 10407 10406 10405 10404 10403 10403 10401 10401 10400 10399 10398 10398
10480 10478 10475 10473 10471 10468 10464 10462 10459 10458 10456 10453 10451 10448 10446 10444 10441 10439 10436 10434 10431 10429 10428 10426 10425 10424 10423 10423 10421 10421 10421 10420 10419 10418 10418 10418 10417 10417 10416 10416 10416 10415 10415 10415 10415 10415 10415 10415 10414 10414 10414 10414 10414 10414 10413 10413 10413 10413 10413 10412 10412 10412 10411 10411 10411 10410 10409 10409 10409 10408 10408 10406 10406 10404 10404 10403 10402 10401 10400 10399 10398 10398 10396 10396 10395 10394
10474 10471 10469 10466 10464 10462 10459 10455 10453 10451 10449 10447 10444 10442 10439 10437 10434 10432 10429 10428 10426 10424 10423 10422 10421 10419 10419 10418 10417 10416 10416 10416 10415 10414 10414 10414 10414 10413 10413 10413 10413 10412 10412 10412 10412 10412 10412 10412 10412 10411 10411 10411 10411 10411 10411 10410 10410 10410 10409 10409 10409 10409 10408 10408 10408 10407 10406 10406 10406 10405 10404 10403 10403 10401 10401 10399 10398 10398 10397 10396 10395 10394 10393 10393 10391 10391
10469 10466 10463 10460 10458 10455 10453 10449 10447 10444 10443 10441 10438 10436 10433 10431 10428 10426 10424 10422 10421 10419 10418 10417 10416 10416 10414 10414 10413 10412 10412 10412 10411 10411 10411 10410 10410 10409 10410 10409 10409 10409 10409 10409 10409 10409 10409 10409 10409 10409 10409 10408 10408 10408 10408 10408 10407 10407 10406 10406 10406 10406 10405 10404 10404 10404 10403 10403 10403 10402 10401 10400 10399 10398 10397 10396 10395 10394 10393 10393 10391 10391 10389 10389 10388 10388
10463 10460 10457 10454 10451 10449 10446 10443 10441 10438 10436 10434 10432 10429 10427 10424 10422 10420 10418 10417 10416 10415 10414 10413 10412 10411 10410 10409 10409 10408 10408 10408 10408 10408 10407 10407 10406 10406 10406 10406 10406 10406 10406 10406 10406 10406 10406 10406 10406 10406 10406 10405 10405 10405 10404 10404 10404 10404 10404 10403 10403 10403 10402 10401 10401 10401 10400 10399 10399 10398 10398 10397 10396 10395 10394 10393 10392 10391 10390 10389 10388 10387 10386 10385 10384 10384
10456 10454 10451 10448 10445 10442 10439 10437 10434 10432 10430 10428 10426 10423 10421 10418 10416 10415 10414 10413 10411 10411 10409 10409 10408 10407 10406 10406 10405 10404 10404 10404 10404 10404 10404 10403 10403 10403 10403 10403 10403 10403 10403 10403 10403 10403 10403 10403 10403 10403 10403 10402 10402 10402 10401 10401 10401 10401 10401 10400 10400 10399 10399 10398 10398 10398 10397 10396 10396 10395 10394 10393 10393 10391 10391 10389 10388 10388 10386 10386 10384 10384 10383 10382 10381 10380
10450 10447 10444 10441 10439 10436 10433 10431 10428 10426 10424 10422 10419 10417 10414 10413 10411 10410 10409 10408 10407 10406 10405 10404 10404 10403 10402 10402 10401 10401 10401 10401 10401 10401 10400 10400 10400 10399 10399 10400 10399 10399 10399 10399 10400 10400 10400 10399 10399 10399 10399 10399 10399 10399 10398 10398 10398 10398 10398 10397 10396 10396 10396 10395 10394 10394 10394 10393 10393 10392 10391 10390 10389 10388 10387 10386 10385 10384 10383 10382 10381 10380 10379 10378 10378 10376
10444 10441 10438 10435 10432 10429 10427 10424 10422 10420 10418 10416 10413 10411 10409 10408 10406 10405 10404 10403 10403 10402 10401 10400 10399 10399 10398 10398 10398 10397 10397 10397 10398 10397 10397 10397 10397 10396 10396 10396 10396 10396 10396 10396 10397 10397 10397 10396 10396 10396 10396 10396 10396 10396 10395 10395 10395 10394 10394 10394 10393 10393 10393 10392 10391 10391 10390 10389 10389 10388 10388 10386 10386 10384 10383 10383 10381 10381 10379 10378 10378 10376 10376 10374 10374 10373
10437 10434 10431 10428 10426 10423 10420 10418 10416 10414 10412 10410 10408 10406 10404 10403 10401 10401 10399 10399 10398 10398 10397 10396 10396 10395 10394 10394 10394 10394 10394 10394 10394 10394 10394 10394 10394 10393 10393 10393 10394 10393 10393 10393 10394 10394 10394 10394 10393 10393 10393 10393 10393 10393 10393 10392 10392 10391 10391 10391 10390 10389 10389 10388 10388 10388 10387 10386 10385 10384 10384 10383 10382 10381 10379 10379 10378 10376 10376 10374 10374 10373 10372 10371 10370 10369
10430 10428 10424 10421 10419 10416 10414 10413 10410 10408 10406 10404 10403 10401 10399 10398 10398 10396 10395 10394 10394 10393 10393 10392 10392 10391 10391 10391 10391 10391 10391 10391 10391 10391 10391 10391 10391 10390 10390 10391 10391 10391 10390 10390 10391 10391 10391 10391 10391 10391 10390 10390 10389 10389 10389 10389 10389 10388 10388 10388 10387 10386 10386 10385 10384 10384 10383 10383 10382 10381 10380 10379 10378 10377 10376 10374 10374 10373 10372 10371 10370 10369 10368 10367 10366 10365
10423 10421 10418 10415 10413 10411 10409 10406 10404 10403 10401 10399 10398 10396 10395 10394 10393 10392 10391 10391 10390 10389 10389 10388 10388 10388 10388 10388 10387 10387 10387 10387 10387 10388 10388 10388 10387 10387 10388 10388 10388 10388 10388 10388 10388 10388 10388 10388 10388 10388 10387 10387 10386 10386 10386 10386 10386 10385 10384 10384 10384 10383 10383 10381 10381 10380 10379 10379 10378 10377 10376 10375 10374 10373 10372 10371 10369 10369 10368 10366 10366 10365 10364 10363 10362 10361
10417 10414 10411 10409 10407 10405 10403 10401 10399 10398 10396 10394 10393 10392 10391 10389 10389 10388 10387 10387 10386 10386 10385 10384 10384 10384 10384 10384 10384 10384 10384 10384 10384 10384 10384 10384 10384 10384 10384 10384 10384 10384 10384 10384 10384 10384 10384 10384 10384 10384 10384 10384 10383 10383 10383 10383 10382 10382 10381 10381 10380 10379 10379 10378 10378 10376 10376 10375 10374 10373 10373 10371 10370 10369 10368 10366 10366 10364 10363 10363 10361 10361 10359 10359 10358 10357
10410 10408 10405 10403 10401 10399 10398 10396 10394 10393 10391 10390 10389 10388 10386 10386 10384 10384 10383 10383 10383 10382 10382 10381 10381 10381 10381 10381 10381 10381 10380 10381 10381 10381 10381 10381 10381 10381 10382 10382 10381 10381 10382 10382 10381 10381 10381 10381 10381 10381 10381 10381 10380 10379 10379 10379 10379 10378 10378 10378 10377 10376 10375 10374 10374 10373 10372 10371 10371 10369 10369 10368 10366 10365 10364 10363 10361 10360 10359 10358 10357 10356 10355 10354 10354 10353
10403 10401 10399 10397 10396 10394 10393 10391 10389 10388 10387 10386 10384 10383 10383 10381 10381 10380 10379 10379 10379 10378 10378 10378 10378 10378 10378 10378 10378 10378 10378 10378 10378 10378 10379 10378 10378 10378 10379 10379 10379 10378 10378 10379 10378 10378 10378 10377 10377 10378 10378 10377 10377 10376 10376 10376 10375 10374 10374 10374 10373 10372 10371 10371 10370 10369 10368 10368 10367 10366 10364 10363 10362 10361 10359 10358 10357 10356 10354 10354 10353 10352 10351 10350 10349 10348
10398 10395 10393 10392 10390 10389 10388 10386 10384 10383 10383 10381 10380 10379 10378 10378 10377 10376 10376 10376 10375 10375 10375 10374 10374 10374 10374 10374 10374 10374 10374 10374 10375 10375 10376 10376 10375 10375 10376 10376 10376 10375 10375 10375 10375 10374 10374 10374 10374 10374 10374 10374 10373 10373 10373 10372 10372 10371 10371 10370 10369 10368 10368 10367 10366 10365 10364 10364 10363 10362 10361 10359 10358 10357 10356 10354 10353 10351 10350 10349 10348 10348 10346 10346 10344 10344
10391 10389 10388 10386 10385 10384 10383 10381 10380 10379 10378 10377 10376 10375 10374 10374 10373 10373 10373 10372 10372 10371 10371 10371 10371 10371 10371 10371 10371 10371 10371 10372 10372 10373 10373 10373 10372 10372 10372 10373 10373 10373 10372 10372 10372 10371 10371 10371 10370 10370 10370 10369 10369 10369 10369 10369 10368 10368 10367 10366 10366 10364 10364 10363 10362 10361 10361 10360 10359 10358 10357 10356 10354 10353 10351 10350 10348 10347 10346 10344 10343 10343 10342 10341 10340 10339
10386 10384 10383 10381 10381 10379 10378 10377 10376 10374 10374 10373 10372 10371 10371 10370 10369 10369 10369 10369 10368 10368 10368 10368 10368 10368 10368 10368 10368 10368 10368 10369 10369 10369 10369 10369 10369 10369 10369 10369 10369 10369 10369 10369 10368 10368 10368 10368 10367 10367 10366 10366 10366 10366 10366 10365 10364 10364 10363 10363 10362 10361 10360 10359 10358 10358 10357 10356 10355 10354 10353 10351 10350 10349 10347 10346 10344 10343 10341 10340 10339 10338 10337 10336 10335 10334
10381 10379 10378 10377 10376 10374 10374 10373 10371 10371 10369 10369 10368 10368 10367 10367 10366 10366 10366 10365 10365 10365 10365 10365 10365 10365 10365 10366 10366 10366 10366 10366 10366 10366 10366 10366 10366 10366 10366 10366 10366 10366 10366 10366 10365 10365 10364 10364 10364 10364 10363 10363 10362 10362 10362 10362 10361 10361 10359 10359 10358 10357 10356 10355 10354 10354 10353 10352 10351 10349 10349 10348 10346 10344 10343 10341 10340 10338 10337 10335 10334 10333 10332 10331 10330 10329
10376 10374 10373 10373 10371 10370 10369 10368 10368 10366 10366 10365 10364 10364 10364 10363 10363 10363 10363 10362 10362 10362 10362 10362 10362 10362 10363 10363 10363 10363 10363 10363 10363 10363 10363 10363 10363 10363 10363 10363 10363 10363 10363 10363 10362 10361 10361 10361 10361 10360 10359 10359 10359 10358 10358 10358 10358 10357 10356 10355 10354 10353 10352 10351 10351 10350 10349 10348 10346 10346 10344 10343 10341 10340 10338 10337 10335 10334 10332 10331 10329 10328 10327 10326 10324 10324
10371 10370 10369 10368 10367 10366 10365 10364 10363 10363 10362 10361 10361 10361 10360 10360 10359 10359 10359 10359 10359 10359 10359 10359 10359 10359 10359 10359 10360 10360 10360 10360 10360 10360 10360 10360 10361 10361 10360 10360 10359 10359 10359 10359 10359 10358 10358 10358 10357 10356 10356 10356 10355 10354 10354 10354 10353 10353 10351 10351 10350 10349 10348 10348 10346 10346 10344 10343 10342 10341 10340 10338 10337 10335 10334 10332 10331 10329 10327 10326 10324 10323 10321 10320 10319 10318
10366 10366 10364 10364 10363 10362 10361 10360 10359 10359 10359 10358 10358 10358 10357 10357 10356 10356 10356 10356 10356 10356 10356 10356 10356 10356 10357 10357 10357 10357 10357 10357 10357 10357 10358 10358 10358 10358 10357 10357 10356 10356 10356 10356 10356 10356 10355 10354 10354 10353 10353 10352 10351 10351 10351 10350 10349 10348 10347 10346 10346 10345 10344 10344 10343 10341 10340 10339 10338 10336 10335 10334 10332 10331 10329 10327 10326 10324 10322 10321 10319 10318 10317 10315 10314 10313
10362 10361 10360 10359 10359 10358 10358 10356 10356 10356 10355 10354 10354 10354 10354 10353 10353 10353 10353 10353 10353 10353 10353 10353 10353 10354 10354 10354 10354 10354 10354 10354 10354 10354 10354 10354 10354 10354 10354 10354 10353 10353 10353 10353 10353 10353 10352 10351 10351 10350 10349 10349 10348 10347 10347 10346 10345 10344 10343 10342 10341 10340 10340 10339 10339 10337 10336 10334 10333 10331 10329 10328 10327 10326 10324 10323 10321 10319 10317 10316 10314 10313 10312 10311 10309 10308
10358 10357 10356 10356 10355 10354 10354 10353 10353 10352 10351 10351 10351 10351 10350 10350 10350 10350 10350 10350 10350 10350 10350 10350 10351 10351 10351 10351 10351 10351 10351 10351 10351 10351 10351 10351 10351 10351 10351 10351 10351 10351 10351 10350 10350 10349 10349 10348 10348 10347 10346 10346 10345 10344 10343 10342 10341 10340 10339 10338 10336 10336 10336 10335 10334 10333 10331 10329 10328 10326 10324 10323 10321 10320 10319 10317 10316 10314 10313 10311 10309 10308 10306 10306 10304 10303
10354 10353 10352 10351 10351 10351 10350 10349 10349 10349 10348 10348 10348 10348 10347 10347 10347 10347 10347 10347 10347 10347 10348 10348 10348 10348 10348 10348 10348 10348 10349 10349 10349 10349 10348 10348 10348 10348 10348 10348 10348 10348 10348 10347 10346 10346 10346 10345 10344 10344 10343 10343 10341 10341 10339 10338 10337 10336 10335 10334 10333 10331 10331 10330 10330 10329 10327 10324 10323 10321 10319 10318 10316 10314 10313 10312 10310 10308 10307 10306 10304 10303 10301 10301 10299 10299
10350 10349 10348 10348 10348 10347 10346 10346 10346 10345 10345 10345 10344 10344 10344 10344 10344 10344 10344 10344 10344 10344 10344 10345 10345 10345 10345 10345 10345 10346 10346 10346 10346 10346 10346 10346 10346 10346 10346 10345 10345 10345 10344 10344 10343 10343 10342 10342 10341 10340 10339 10339 10338 10337 10336 10334 10333 10332 10331 10330 10329 10327 10326 10324 10324 10324 10322 10320 10318 10316 10314 10313 10311 10309 10308 10306 10304 10303 10302 10300 10299 10298 10297 10296 10294 10293
10346 10345 10344 10344 10344 10343 10343 10343 10343 10342 10342 10342 10341 10341 10341 10341 10342 10341 10341 10341 10341 10342 10342 10342 10342 10342 10342 10342 10342 10343 10343 10343 10343 10343 10343 10343 10343 10343 10343 10343 10342 10342 10341 10341 10340 10339 10338 10338 10338 10337 10336 10336 10334 10333 10332 10331 10329 10328 10327 10326 10325 10323 10321 10320 10319 10318 10316 10314 10313 10311 10309 10307 10306 10304 10302 10301 10299 10298 10296 10295 10294 10293 10291 10290 10289 10288
10343 10342 10341 10341 10340 10340 10339 10339 10339 10339 10339 10339 10339 10339 10339 10339 10339 10339 10339 10339 10339 10339 10339 10339 10339 10339 10339 10339 10339 10339 10339 10339 10340 10340 10340 10340 10340 10340 10340 10339 10339 10339 10338 10338 10337 10336 10335 10334 10333 10333 10333 10332 10331 10330 10329 10327 10326 10324 10323 10322 10321 10319 10318 10316 10314 10313 10310 10308 10306 10305 10304 10302 10300 10298 10296 10295 10294 10293 10291 10290 10288 10287 10286 10285 10284 10283
10339 10338 10338 10337 10337 10337 10336 10336 10336 10336 10336 10336 10336 10336 10336 10336 10336 10336 10336 10336 10336 10336 10336 10336 10337 10336 10336 10336 10336 10337 10337 10337 10337 10337 10338 10338 10338 10337 10336 10336 10336 10335 10334 10334 10333 10333 10332 10331 10330 10329 10328 10328 10327 10326 10325 10324 10322 10321 10319 10318 10316 10315 10313 10311 10309 10308 10305 10303 10301 10299 10298 10296 10295 10293 10291 10289 10288 10287 10286 10285 10283 10282 10280 10279 10278 10277
10335 10334 10334 10334 10334 10333 10333 10333 10333 10333 10333 10333 10333 10333 10333 10334 10334 10334 10334 10334 10334 10334 10334 10334 10334 10334 10334 10334 10334 10334 10334 10334 10334 10334 10334 10334 10334 10334 10333 10333 10333 10332 10331 10331 10330 10329 10328 10328 10327 10326 10324 10323 10322 10321 10320 10319 10319 10317 10315 10314 10313 10311 10308 10306 10304 10302 10300 10298 10296 10294 10293 10291 10289 10288 10286 10284 10283 10282 10281 10279 10278 10276 10275 10273 10272 10271
10331 10331 10331 10331 10330 10330 10330 10330 10330 10330 10330 10330 10331 10331 10331 10331 10331 10331 10331 10331 10331 10331 10331 10331 10331 10331 10331 10331 10331 10331 10331 10331 10331 10331 10331 10331 10331 10331 10330 10330 10329 10329 10328 10327 10326 10326 10324 10324 10323 10323 10321 10320 10318 10317 10316 10315 10314 10313 10312 10310 10308 10306 10303 10301 10299 10297 10295 10293 10291 10289 10287 10286 10284 10282 10280 10279 10277 10276 10275 10274 10273 10271 10269 10268 10266 10265
10328 10328 10327 10327 10327 10327 10327 10327 10328 10328 10328 10328 10328 10328 10328 10328 10328 10328 10328 10328 10328 10328 10328 10328 10328 10328 10328 10328 10328 10328 10328 10328 10328 10328 10328 10327 10327 10327 10327 10326 10326 10325 10324 10323 10323 10321 10321 10319 10319 10319 10318 10316 10314 10313 10311 10311 10310 10309 10308 10306 10304 10301 10299 10296 10294 10292 10290 10288 10286 10284 10282 10281 10279 10277 10275 10273 10271 10270 10269 10268 10267 10266 10264 10263 10261 10259
10324 10324 10324 10324 10324 10324 10324 10324 10324 10324 10324 10324 10324 10325 10325 10325 10325 10325 10325 10325 10325 10326 10326 10326 10326 10326 10326 10325 10325 10325 10325 10325 10324 10324 10324 10324 10324 10324 10323 10323 10322 10321 10320 10319 10318 10317 10316 10315 10314 10314 10314 10313 10311 10309 10308 10306 10306 10304 10303 10301 10299 10297 10294 10291 10289 10287 10285 10283 10281 10279 10277 10275 10273 10272 10270 10268 10266 10264 10263 10262 10261 10259 10258 10256 10254 10253
10321 10321 10321 10321 10321 10321 10321 10321 10321 10321 10321 10321 10322 10322 10322 10322 10322 10322 10323 10323 10323 10323 10323 10323 10323 10323 10323 10323 10322 10322 10322 10322 10321 10321 10321 10321 10321 10320 10319 10319 10318 10317 10316 10315 10314 10313 10312 10311 10309 10309 10308 10308 10308 10306 10304 10302 10300 10299 10297 10295 10294 10292 10289 10287 10284 10283 10281 10278 10276 10274 10273 10270 10268 10266 10264 10263 10260 10258 10256 10255 10254 10253 10253 10251 10249 10247